Regional Weather Roundup
Issued by NWS

Home | Current Version | Previous Version | Graphics & Text | Print | Product List | Glossary On
Versions: 1 2 3 4 5 6 7 8 9 10 11 12 13 14 15 16 17 18 19 20 21 22 23 24 25 26 27 28 29 30 31 32 33 34 35 36 37 38 39 40 41 42 43 44 45 46 47 48 49 50
000
ASUS45 KSLC 201410
RWRUT

UTAH REGIONAL WEATHER ROUNDUP
NATIONAL WEATHER SERVICE SALT LAKE CITY UT
800 AM MDT FRI APR 20 2018

UTZ001>011-023>025-201500-

NORTHERN UTAH

CITY           SKY/WX    TMP DP  RH WIND       PRES   REMARKS
BRIGHAM CITY   CLOUDY    52  22  32 NW14G32   29.87R
DUGWAY         CLOUDY    47  33  59 VRB2      29.86R
HILL AFB       PTSUNNY   52  31  44 VRB6G22   29.84R
LOGAN          CLOUDY    49  31  49 VRB3      29.90R
OGDEN          CLOUDY    52  29  41 NE10      29.84R
SALT LAKE CITY CLOUDY    56  35  45 VRB3G18   29.82R
TOOELE VALLEY  RAIN      48  37  66 N14       29.84R
WENDOVER       MOSUNNY   51  24  34 N26G38    29.89R
HEBER CITY       N/A     45  34  65 N12G21    29.82R
WEST JORDAN    CLOUDY    46  37  70 S13       29.85R

$$

UTZ011>015-024>027-201500-

CENTRAL/NORTHEAST UTAH

CITY           SKY/WX    TMP DP  RH WIND       PRES   REMARKS
PROVO AIRPORT  CLOUDY    44  39  82 CALM      29.86R
MOAB/CANYONLAN SUNNY     49  17  28 S12       29.81R
DELTA          CLOUDY    37  36  93 SE3       29.87R
PRICE          CLOUDY    43  22  43 NE10      29.84R
RICHFIELD      PTSUNNY   36  36 100 W1        29.86
ROOSEVELT      PTSUNNY   50  32  50 E16G22    29.82R
VERNAL         CLOUDY    48  36  63 NE13      29.83R

$$

UTZ013>016-019>022-027-201500-

SOUTHERN UTAH

CITY           SKY/WX    TMP DP  RH WIND       PRES   REMARKS
BRYCE CANYON   LGT SNOW  28  26  92 CALM      29.83R VSB 3/4
CEDAR CITY     CLOUDY    33  33 100 S8        29.86R WCI  26
MILFORD        LGT RAIN  37  37 100 S6        29.85R WCI  32
ST GEORGE      LGT RAIN  46  41  82 NE3       29.92R
HANKSVILLE     CLOUDY    46  27  46 S7        29.83R
KANAB          CLOUDY    41  34  75 SW13      29.92
BLANDING         N/A     38  11  33 E5        29.94S WCI  34

$$

REGIONAL REPORTS     COLORADO/ARIZONA

CITY           SKY/WX    TMP DP  RH WIND       PRES   REMARKS
CRAIG, CO      LGT RAIN  41  37  86 VRB3      29.90R
GRAND JUNCTION CLOUDY    50  31  48 S16       29.83R
RIFLE, CO      CLOUDY    43  37  79 SE9       29.89S
MONTROSE, CO   CLOUDY    42  31  64 CALM      29.88S
CORTEZ, CO     PTSUNNY   43  12  28 S12       29.91R
COLORADO CITY  DRIZZLE   37  36  93 W3        29.92S
PAGE, AZ       CLOUDY    45  29  53 SE5       29.86R
GRAND CANYON   NOT AVBL
KINGMAN, AZ    SUNNY     47  31  53 SW12      29.98R
FLAGSTAFF, AZ  CLOUDY    30  23  75 SW10      29.95R WCI  21

$$

REGIONAL REPORTS    NEVADA/IDAHO/WYOMING

CITY           SKY/WX    TMP DP  RH WIND       PRES   REMARKS
LAS VEGAS, NV  MOSUNNY   56  36  47 SW9       29.96R
ELY, NY        PTSUNNY   40  22  48 N10       29.97R WCI  33
ELKO, NV       SUNNY     39  27  62 SW7       30.09R WCI  34
POCATELLO, ID  SUNNY     38  31  76 SW9       30.03R WCI  31
BURLEY, ID     SUNNY     41  28  60 W17G29    30.02R
FORT BRIDGER,  CLOUDY    37  36  94 E13G22    29.98R WCI  29
EVANSTON, WY   CLOUDY    37  31  78 E16G31    29.93R WCI  28
ROCK SPRINGS,  CLOUDY    38  24  57 NE17      29.96R WCI  28
KEMMERER, WY   CLOUDY    36  34  93 NE15      29.95R WCI  26

$$



USA.gov is the U.S. government's official web portal to all federal, state and local government web resources and services.